Portada
METAR-TAF:

METAR-TAF

Aeroports :

Centralia Municipal Airport

Centralia, Illinois, Estats Units d'Amèrica

latitud: 38-30-53N, longitud: 089-05-32W, altitud: 163 m

Observació

L'informe es va fer fa 16 minuts, a les 02:55 UTC
Vent 5 kt del Sud-Est
Temperatura 27°C
Humitat 62%
Pressió 1013 hPa
Visibilitat: 16.1 km
Cel clar

METAR: KENL 250255Z AUTO 14005KT 10SM CLR 27/19 A2992 RMK AO2 T02710192

Hora: 22:11 (03:11 UTC)


TAF: manca

Observacions i pronòstics meteorològics de més de 4000 aeroports (METAR i TAF).

Les estacions disponibles són els punts grocs i vermells al mapa.

Posi el ratolí al punt desitjat per veure el nom de l'estació.

Feu clic per veure les observacions i els pronòstics meteorològics.

Per canviar el mapa: feu clic els botons verds amb una creu de color negre per apropar; al botó verd amb un guió per allunyar la imatge; o en les fletxes verdes per a mapes adjacents.


METAR-TAF: